Wind_Speed
17 17 17 16 15 15 14 14 15 17 17 12 10 10 12 16 18 18 19 19 13 9 8 4 4 4 4 9 5 3 16 18 16 12 11 11 11 9 6 1 6 9 9 11 12 10 10
17 20 21 20 19 19 18 16 16 17 15 13 13 12 12 15 17 19 19 20 15 8 7 5 3 5 5 15 4 6 11 14 12 13 13 12 11 4 2 1 7 10 12 13 11 11 8
10 11 14 18 21 22 22 21 20 20 17 14 14 15 14 14 16 19 19 21 17 7 6 5 3 4 7 3 2 4 9 7 10 12 11 10 7 10 7 5 9 15 14 10 10 11 10
8 10 12 11 12 16 21 24 23 22 22 19 17 15 15 16 16 19 19 21 16 6 6 4 4 6 5 4 2 3 5 4 7 8 7 6 5 5 8 10 11 10 11 9 11 12 8
8 8 9 11 12 11 12 16 22 24 24 24 20 17 14 15 17 18 19 19 11 6 5 4 2 4 5 4 3 4 8 10 10 10 11 10 5 4 10 13 11 12 10 12 12 16 11
7 7 9 9 11 12 12 13 15 18 21 24 23 19 14 12 15 18 17 17 7 4 4 2 4 5 4 7 5 8 10 11 8 12 9 7 7 9 11 12 12 14 15 8 11 17 13
7 6 7 8 10 11 12 14 14 14 16 18 21 21 14 10 12 14 15 11 5 4 3 5 1 4 2 3 6 9 6 8 11 9 10 8 10 11 16 17 10 10 10 9 9 12 13
10 10 7 7 9 11 12 12 15 15 14 15 17 19 16 10 10 12 11 5 5 4 7 7 5 6 6 6 8 11 7 10 9 12 5 7 12 10 10 4 10 11 8 9 7 7 10
9 9 10 10 9 10 11 13 13 15 15 15 14 15 16 11 8 8 7 7 6 6 7 5 9 8 6 9 10 15 8 12 10 12 10 13 11 10 4 6 8 7 9 5 8 9 12
8 7 9 9 9 10 10 12 14 15 15 16 14 13 12 11 5 4 2 7 6 3 5 9 8 8 9 9 9 6 10 8 7 10 10 10 4 6 8 8 5 10 4 9 4 7 6
10 9 8 9 10 10 10 11 13 15 16 15 15 12 8 9 5 2 5 5 5 2 3 2 9 4 10 13 8 12 9 8 11 11 6 2 5 12 13 9 3 4 5 6 6 9 9
14 11 10 9 9 10 11 12 12 14 15 16 13 12 6 2 10 8 6 3 2 2 7 6 6 10 12 17 9 8 11 7 4 6 7 2 2 8 11 2 3 1 2 3 5 8 9
16 15 14 15 12 10 10 12 13 14 14 15 15 11 8 12 7 11 6 1 4 4 3 8 7 8 15 11 12 13 13 14 11 11 11 5 8 4 4 8 3 9 6 5 6 7 8
12 9 10 15 16 11 10 11 13 13 14 15 14 12 9 13 13 9 4 6 5 7 10 2 4 8 12 11 14 13 12 15 18 16 9 11 9 12 8 8 6 11 12 6 6 6 2
12 12 11 11 11 13 11 11 13 13 14 15 12 10 7 6 14 9 11 5 7 9 5 5 6 8 11 11 5 11 15 15 14 15 12 9 9 6 3 3 4 6 6 5 8 4 6
10 9 9 10 11 9 11 11 12 12 12 13 11 9 4 7 15 11 5 9 12 5 1 7 11 9 12 14 11 10 11 7 12 12 17 5 5 4 6 5 4 6 3 4 3 1 8
11 9 7 8 8 8 8 10 11 11 10 9 6 5 4 7 16 10 9 10 12 7 6 5 9 6 8 5 11 11 4 5 10 11 10 12 9 7 4 10 10 6 8 5 3 5 4
15 12 9 7 7 7 7 8 10 9 7 7 4 4 2 9 11 15 12 15 8 15 8 6 5 7 8 7 7 9 8 4 6 10 11 10 6 10 9 5 2 7 10 12 4 6 4
19 17 14 11 9 8 6 8 9 7 5 4 4 5 3 12 7 11 13 17 14 17 13 8 8 8 4 7 5 9 5 7 6 9 5 9 7 5 7 5 5 7 10 0 3 4 10
21 20 18 15 13 10 8 7 7 7 5 0 4 2 5 8 13 11 16 15 18 17 14 12 6 5 8 9 8 2 6 3 4 9 2 2 7 11 7 3 8 4 9 4 5 5 9
23 21 20 18 16 13 10 8 7 9 7 1 6 5 2 3 8 15 13 11 19 19 17 8 8 11 11 9 11 11 9 6 7 7 5 6 7 9 4 5 6 5 8 12 11 16 10
22 24 23 21 18 16 13 11 9 11 9 6 4 4 4 11 7 15 14 11 17 17 16 18 14 12 6 12 10 8 12 10 9 11 12 8 5 6 7 8 9 11 9 11 16 16 17
23 22 23 23 20 18 16 13 10 12 13 7 7 5 5 8 11 9 13 16 10 19 19 13 17 14 11 5 16 18 15 6 10 10 14 10 6 5 6 5 5 8 15 17 17 15 10
23 23 22 23 22 21 19 16 14 13 17 11 7 8 6 7 10 10 8 10 15 19 18 21 13 14 12 6 15 9 7 6 8 7 12 10 12 6 4 4 1 8 0 5 8 11 8
24 23 22 22 21 21 21 19 18 15 17 16 12 8 4 7 14 12 10 10 11 11 26 20 9 8 4 3 5 7 4 4 5 6 9 11 9 3 3 9 11 15 10 6 6 7 12
27 24 24 23 22 22 21 21 20 18 17 20 17 13 9 6 9 16 8 10 8 10 14 20 4 8 4 6 3 4 7 7 8 8 7 9 10 9 4 5 5 2 4 5 3 9 9
29 28 26 24 24 23 23 22 21 20 19 20 17 17 13 11 19 7 5 6 5 6 6 15 11 5 8 2 5 10 12 13 10 10 7 10 8 7 9 8 6 1 11 7 6 3 12
24 24 26 26 24 23 23 23 22 21 19 20 19 20 19 12 19 12 8 13 4 3 3 9 3 4 6 5 6 6 9 13 11 11 15 12 10 6 8 5 10 10 11 7 7 15 16
23 23 25 25 26 24 25 25 24 23 21 20 20 19 19 20 13 9 15 20 21 14 11 4 7 6 12 6 6 6 6 5 11 11 7 10 8 8 9 6 2 17 0 10 10 16 15
Wind_Direction
265 268 273 277 283 286 286 289 295 299 306 317 327 331 337 335 338 345 349 347 330 298 287 272 261 224 214 219 240 269 216 223 240 236 219 212 218 237 239 89 123 105 108 113 123 132 152
266 265 268 272 276 279 283 284 285 292 305 312 317 321 330 331 330 335 344 342 332 294 277 260 236 215 219 250 291 297 227 226 223 211 218 223 237 270 93 6 304 127 134 130 143 132 143
304 292 279 273 272 272 273 276 280 284 295 305 309 316 322 323 326 328 335 339 330 291 266 254 214 198 238 244 352 285 235 193 215 208 218 222 255 205 156 128 130 136 138 145 158 162 158
312 311 310 304 295 281 271 270 273 279 285 291 301 305 315 320 321 324 329 335 326 281 259 240 221 188 257 230 180 118 171 190 185 203 204 184 208 203 219 137 151 175 174 175 166 169 153
310 315 314 309 309 309 301 284 275 275 278 283 291 300 308 319 320 316 326 329 322 287 255 225 192 235 214 193 167 165 158 140 127 125 132 138 156 184 160 178 182 195 221 225 167 196 157
305 310 316 317 311 312 315 308 298 286 279 277 279 288 297 318 323 315 324 329 318 313 289 220 209 225 226 191 168 153 141 145 143 138 144 181 185 181 211 205 211 186 241 196 197 192 217
282 295 310 319 316 316 317 316 319 308 293 279 274 274 282 304 330 327 332 352 306 216 255 294 306 287 207 204 177 180 164 166 169 212 235 210 237 222 210 225 295 301 239 207 218 151 211
266 276 296 308 317 320 317 320 314 320 310 294 282 270 269 282 334 340 1 47 40 309 300 251 247 248 212 196 190 193 172 194 208 233 187 222 236 248 249 261 270 252 231 230 155 137 230
268 276 283 291 303 309 316 316 319 310 314 308 298 280 267 263 320 345 22 25 8 347 258 206 219 227 207 193 208 193 198 213 225 236 237 263 20 79 188 208 237 240 251 222 263 170 236
276 279 281 289 295 305 310 315 316 316 309 311 306 300 274 249 295 317 293 350 347 10 262 160 202 207 198 191 225 187 197 209 216 252 242 257 115 201 203 218 255 261 247 307 189 224 275
269 278 282 289 290 296 303 308 314 313 311 309 309 304 286 229 211 320 250 334 332 2 276 194 155 150 180 192 120 189 197 208 234 212 232 231 222 212 209 214 310 13 323 271 251 258 316
259 266 280 290 295 294 293 301 308 314 311 306 307 303 285 222 221 258 258 308 311 231 241 182 184 195 186 209 208 139 185 196 218 197 231 23 314 231 234 113 275 12 221 230 258 265 264
257 262 267 276 285 300 295 293 301 310 310 306 304 301 275 225 173 226 218 223 216 214 236 175 197 186 206 187 199 199 186 195 200 208 217 186 199 164 225 223 214 220 222 254 231 215 255
255 269 276 273 271 278 300 295 293 303 311 304 306 308 277 227 209 199 199 209 212 233 227 59 200 198 207 194 212 209 209 215 213 217 232 211 191 192 167 237 273 216 233 221 262 284 241
249 262 273 278 290 266 277 297 294 300 309 308 313 314 291 258 202 200 220 200 202 242 284 209 186 200 196 187 263 214 224 225 202 219 221 217 216 117 180 187 246 173 226 298 281 263 283
241 252 269 278 277 288 264 285 294 301 312 322 327 327 246 243 199 182 237 225 223 273 291 258 228 212 201 191 200 198 205 231 231 201 233 223 213 206 135 194 203 275 38 217 219 228 260
239 246 261 285 283 286 279 268 291 294 310 332 354 297 233 218 185 199 221 225 222 231 264 246 242 224 255 184 203 200 204 144 228 187 228 231 233 140 173 205 212 187 220 220 274 237 268
235 239 246 258 280 292 294 273 277 291 312 2 292 239 276 188 198 216 228 220 245 236 229 246 276 280 264 216 227 231 235 239 181 192 209 208 239 227 218 98 309 298 239 215 199 223 240
237 237 238 244 259 278 298 288 267 278 291 325 258 276 305 181 216 228 223 220 229 236 216 217 228 233 212 250 241 225 238 78 189 211 221 161 225 211 205 181 193 224 215 341 316 270 244
234 235 236 240 246 261 276 285 267 253 254 343 274 286 220 198 245 274 228 221 213 230 261 208 260 283 223 234 240 263 207 142 210 228 49 253 229 208 238 16 125 195 197 173 206 228 239
236 235 232 234 241 248 256 263 262 242 227 240 225 251 275 219 218 242 260 246 226 218 222 213 242 242 232 235 230 223 242 155 199 195 214 233 227 233 247 230 223 212 198 190 201 226 231
233 231 232 232 233 238 244 250 247 230 222 233 263 284 308 282 269 207 239 255 256 218 222 220 243 223 260 263 239 237 231 215 209 181 208 213 241 213 236 235 246 250 242 228 222 239 240
233 230 230 228 228 232 235 236 239 224 210 227 235 272 290 278 235 250 219 228 248 256 233 235 212 223 227 296 329 312 318 235 240 187 205 200 222 199 232 210 256 264 244 246 249 230 254
229 230 230 226 227 230 229 229 230 225 216 226 232 262 260 264 245 233 245 305 250 244 240 217 211 213 224 312 331 276 257 230 218 223 211 209 209 189 230 187 258 249 310 286 278 273 212
226 228 228 224 224 226 226 228 227 226 222 226 235 232 256 259 281 290 270 287 273 262 255 259 167 170 171 131 335 243 218 196 247 217 204 228 204 212 173 226 260 277 218 209 220 256 205
228 228 227 225 224 223 224 224 225 225 224 227 236 233 241 271 250 256 289 269 266 266 265 215 151 163 98 155 148 257 221 193 196 177 218 211 235 215 199 228 237 82 122 156 153 249 170
230 229 229 226 220 222 222 222 225 226 223 224 232 236 233 241 248 275 242 330 344 1 299 242 164 144 170 143 183 221 247 231 206 191 184 194 194 210 221 238 250 228 147 163 232 145 152
220 223 223 223 224 222 220 222 223 225 224 224 231 237 226 249 254 254 249 248 280 334 303 337 142 157 165 172 205 214 229 237 237 210 198 190 186 192 224 238 251 169 149 217 100 136 144
219 220 217 219 223 225 224 222 222 222 222 224 232 233 239 241 248 270 255 249 256 266 257 290 287 235 184 187 228 220 221 254 215 221 183 219 209 199 184 208 194 166 81 168 156 147 149
Height
1572 1572 1572 1572 1572 1571 1569 1569 1568 1567 1565 1565 1563 1562 1560 1558 1556 1554 1551 1547 1544 1542 1541 1540 1540 1541 1541 1542 1537 1536 1536 1537 1537 1538 1540 1540 1539 1534 1530 1534 1534 1535 1539 1542 1546 1547 1549
1569 1568 1569 1569 1569 1569 1568 1566 1566 1566 1564 1563 1562 1560 1558 1557 1555 1552 1550 1547 1543 1541 1540 1539 1539 1539 1540 1538 1535 1537 1535 1536 1537 1538 1538 1538 1536 1535 1536 1536 1535 1538 1541 1545 1546 1548 1552
1566 1566 1565 1565 1565 1566 1565 1565 1564 1563 1562 1560 1560 1559 1557 1556 1553 1551 1548 1545 1542 1540 1538 1538 1538 1538 1539 1536 1535 1536 1534 1536 1537 1537 1536 1537 1537 1538 1540 1540 1540 1541 1542 1545 1546 1549 1551
1566 1564 1563 1563 1562 1562 1562 1562 1561 1560 1559 1559 1558 1557 1557 1555 1552 1549 1547 1544 1540 1539 1538 1537 1537 1537 1534 1536 1536 1536 1536 1536 1536 1537 1537 1538 1539 1539 1539 1541 1541 1540 1539 1540 1543 1547 1549
1565 1564 1563 1561 1560 1560 1559 1559 1558 1557 1557 1556 1555 1555 1554 1554 1551 1548 1545 1543 1539 1539 1537 1537 1538 1538 1534 1535 1537 1535 1537 1538 1537 1538 1538 1539 1540 1541 1543 1537 1538 1534 1527 1529 1542 1544 1544
1565 1563 1562 1560 1559 1558 1557 1557 1555 1554 1553 1552 1552 1553 1553 1552 1550 1548 1544 1541 1539 1538 1538 1537 1537 1540 1534 1534 1536 1536 1537 1538 1538 1539 1540 1540 1538 1537 1535 1530 1531 1525 1528 1524 1530 1537 1539
1563 1563 1561 1560 1558 1557 1556 1554 1553 1552 1550 1549 1550 1551 1552 1552 1550 1547 1543 1541 1542 1541 1539 1536 1536 1534 1533 1535 1535 1537 1536 1538 1538 1538 1533 1535 1531 1530 1524 1521 1515 1513 1518 1522 1522 1526 1536
1561 1561 1560 1559 1558 1556 1555 1553 1552 1550 1549 1548 1547 1548 1550 1550 1549 1547 1545 1545 1545 1546 1541 1535 1535 1534 1534 1535 1535 1536 1536 1538 1537 1533 1533 1535 1532 1520 1521 1522 1526 1519 1520 1521 1520 1532 1536
1560 1558 1558 1557 1557 1555 1553 1552 1551 1549 1547 1546 1545 1545 1547 1549 1548 1548 1548 1546 1544 1544 1542 1532 1533 1533 1534 1535 1533 1533 1536 1535 1535 1533 1532 1531 1527 1526 1530 1531 1530 1525 1525 1520 1528 1531 1536
1558 1556 1555 1555 1555 1554 1552 1551 1550 1547 1546 1545 1544 1543 1544 1546 1551 1548 1549 1547 1545 1543 1534 1526 1529 1530 1532 1532 1534 1533 1533 1536 1535 1532 1529 1529 1530 1534 1535 1535 1533 1532 1525 1527 1529 1536 1531
1555 1554 1553 1553 1553 1553 1551 1549 1549 1546 1545 1544 1543 1541 1542 1545 1546 1549 1548 1546 1545 1544 1547 1526 1524 1526 1527 1530 1528 1531 1533 1536 1532 1532 1537 1534 1535 1536 1536 1535 1536 1539 1535 1532 1531 1532 1531
1553 1552 1551 1551 1551 1551 1550 1548 1547 1546 1544 1542 1541 1541 1541 1545 1545 1548 1546 1546 1547 1547 1561 1523 1521 1522 1526 1526 1527 1529 1532 1534 1532 1534 1535 1535 1538 1535 1534 1538 1540 1540 1538 1537 1536 1536 1548
1550 1549 1549 1549 1549 1548 1548 1547 1546 1545 1543 1541 1540 1540 1540 1541 1545 1544 1546 1548 1545 1554 1524 1518 1518 1520 1519 1521 1523 1525 1528 1530 1531 1540 1537 1537 1536 1539 1541 1540 1541 1540 1541 1553 1554 1550 1552
1547 1547 1546 1547 1546 1546 1547 1546 1545 1544 1541 1540 1538 1539 1538 1538 1541 1543 1546 1547 1556 1528 1517 1518 1518 1517 1518 1515 1519 1521 1519 1523 1522 1523 1524 1535 1544 1535 1538 1538 1536 1539 1537 1552 1563 1545 1533
1544 1544 1544 1544 1544 1543 1544 1544 1544 1543 1540 1537 1536 1536 1536 1538 1540 1543 1545 1542 1537 1521 1513 1518 1518 1517 1517 1515 1521 1521 1520 1517 1516 1522 1528 1527 1527 1536 1538 1539 1540 1535 1547 1536 1543 1546 1549
1541 1541 1541 1541 1542 1542 1542 1542 1542 1541 1539 1537 1535 1537 1537 1536 1538 1541 1543 1534 1523 1520 1520 1519 1515 1510 1510 1514 1521 1519 1515 1513 1513 1517 1520 1518 1531 1533 1539 1540 1541 1540 1539 1547 1546 1576 1559
1538 1539 1538 1540 1539 1541 1540 1541 1541 1540 1539 1538 1537 1539 1534 1535 1539 1540 1535 1528 1522 1524 1524 1519 1513 1510 1510 1508 1511 1512 1509 1517 1515 1520 1523 1520 1527 1537 1540 1537 1531 1542 1542 1542 1543 1544 1552
1533 1536 1537 1538 1538 1540 1539 1540 1541 1539 1539 1537 1539 1536 1534 1534 1539 1531 1528 1526 1527 1519 1524 1521 1520 1515 1511 1508 1511 1510 1512 1513 1519 1521 1523 1520 1523 1530 1528 1532 1534 1532 1531 1534 1552 1552 1546
1529 1531 1534 1536 1537 1538 1538 1539 1539 1539 1539 1540 1538 1534 1534 1536 1532 1524 1523 1523 1526 1522 1517 1517 1516 1515 1514 1513 1515 1509 1512 1521 1523 1522 1519 1521 1527 1536 1531 1537 1537 1536 1533 1541 1544 1540 1542
1524 1527 1530 1533 1534 1536 1537 1538 1537 1538 1539 1540 1540 1538 1533 1534 1530 1526 1519 1518 1521 1522 1519 1516 1516 1516 1515 1514 1511 1511 1513 1522 1525 1524 1525 1525 1517 1523 1530 1521 1527 1543 1536 1549 1545 1546 1540
1519 1522 1526 1528 1531 1534 1535 1536 1537 1537 1538 1541 1538 1536 1531 1531 1529 1527 1522 1514 1514 1516 1521 1520 1518 1516 1514 1514 1511 1513 1512 1518 1524 1524 1527 1524 1525 1519 1519 1520 1521 1521 1529 1537 1546 1533 1536
1513 1516 1521 1525 1527 1530 1532 1534 1535 1536 1538 1541 1536 1535 1532 1529 1524 1524 1524 1521 1513 1511 1513 1515 1520 1515 1518 1514 1510 1509 1508 1512 1514 1520 1521 1522 1522 1517 1528 1519 1521 1522 1520 1522 1526 1525 1522
1508 1512 1515 1520 1523 1526 1529 1531 1533 1535 1537 1538 1537 1536 1537 1526 1522 1518 1515 1521 1516 1516 1508 1511 1519 1517 1520 1517 1520 1517 1511 1507 1509 1513 1517 1519 1522 1524 1528 1519 1522 1532 1518 1514 1512 1515 1519
1502 1506 1510 1515 1519 1522 1525 1528 1530 1532 1534 1536 1537 1537 1537 1528 1521 1514 1517 1520 1514 1513 1515 1513 1515 1518 1521 1522 1520 1517 1514 1513 1512 1512 1512 1515 1517 1524 1527 1525 1554 1511 1508 1509 1511 1507 1511
1497 1501 1506 1510 1514 1517 1521 1524 1526 1529 1530 1533 1535 1537 1535 1530 1524 1521 1520 1519 1517 1518 1515 1509 1515 1518 1522 1524 1530 1518 1517 1515 1515 1512 1513 1513 1514 1532 1540 1524 1512 1504 1503 1510 1512 1511 1511
1491 1496 1500 1504 1509 1512 1516 1520 1522 1525 1528 1531 1533 1533 1535 1535 1527 1525 1523 1523 1517 1516 1513 1511 1518 1519 1524 1526 1534 1526 1514 1511 1514 1512 1514 1513 1511 1518 1526 1527 1525 1500 1505 1508 1509 1512 1511
1485 1490 1494 1499 1503 1507 1511 1515 1518 1521 1525 1527 1530 1531 1534 1533 1528 1527 1526 1527 1525 1523 1517 1509 1515 1522 1525 1530 1530 1524 1512 1494 1501 1509 1516 1515 1516 1527 1520 1518 1504 1494 1506 1510 1516 1512 1513
1479 1483 1488 1493 1498 1502 1506 1510 1513 1517 1520 1523 1526 1528 1530 1528 1525 1526 1527 1527 1526 1527 1525 1519 1518 1520 1525 1530 1528 1511 1505 1493 1493 1492 1497 1506 1513 1519 1518 1523 1524 1496 1507 1511 1506 1510 1514
1473 1478 1482 1487 1492 1497 1501 1505 1509 1513 1516 1520 1523 1526 1526 1525 1522 1522 1522 1523 1525 1526 1526 1523 1520 1515 1516 1517 1512 1505 1500 1492 1490 1496 1490 1498 1495 1500 1502 1506 1499 1498 1500 1505 1508 1511 1516